Regional Weather Roundup
Issued by NWS

Home | Current Version | Previous Version | Text Only | Print | Product List | Glossary Off
Versions: 1 2 3 4 5 6 7 8 9 10 11 12 13 14 15 16 17 18 19 20 21 22 23 24 25 26 27 28 29 30 31 32 33 34 35 36 37 38 39 40 41 42 43 44 45 46 47 48 49 50

000
ASUS45 KBOU 231510
RWRCO

WEATHER ROUNDUP FOR COLORADO
NATIONAL WEATHER SERVICE PUEBLO CO
800 AM MST FRI FEB 23 2018

NOTE: "FAIR" INDICATES FEW OR NO CLOUDS BELOW 12000 FEET WITH NO
SIGNIFICANT WEATHER AND/OR OBSTRUCTIONS TO VISIBILITY.

COZ001>005-013-030-031-231600-
...NORTHWEST COLORADO...

CITY           SKY/WX    TMP DP  RH WIND       PRES   REMARKS
CRAIG          MOSUNNY   19  12  74 E9        29.94S WCI   8
HAYDEN         MOSUNNY   14  10  84 SE7       29.95S WCI   4
MEEKER         MOSUNNY   11   8  88 E3        29.92R
RABBIT EARS PA NOT AVBL
STEAMBOAT SPGS   N/A     11   9  92 CALM      29.94S
WALDEN         FAIR       9   5  85 SE8       29.93S WCI  -4
$$

COZ006>008-011-231600-
...WEST CENTRAL VALLEYS...

CITY           SKY/WX    TMP DP  RH WIND       PRES   REMARKS
GRAND JUNCTION CLOUDY    29  23  78 SE12      29.94S WCI  19
MONTROSE       MOSUNNY   25  14  63 SE10      29.99S WCI  15
EAGLE          CLOUDY    19  15  84 CALM      30.00S
RIFLE          CLOUDY    15  14  95 SE7       29.97S WCI   5
DELTA          NOT AVBL
NUCLA          PTSUNNY   30  14  51 S14       30.00R WCI  20
$$

COZ017>023-064>068-231600-
...SOUTHWEST COLORADO...

CITY           SKY/WX    TMP DP  RH WIND       PRES   REMARKS
DURANGO        SUNNY     17  12  80 VRB5      30.04R WCI  10
CORTEZ         CLOUDY    28  11  48 S13       30.01R WCI  17
PAGOSA SPRINGS FAIR     N/A N/A N/A N5        30.05R
TELLURIDE      CLOUDY    18   3  52 S7G21     29.93S WCI   9
WOLF CREEK PAS CLOUDY     3   1  92 S20G32    29.92S WCI -18
$$

COZ009-010-012-014-032>034-037-058>063-231600-
...CENTRAL COLORADO...

CITY           SKY/WX    TMP DP  RH WIND       PRES   REMARKS
ASPEN          CLOUDY    16  11  80 S5        29.92R WCI   9
BUENA VISTA    FAIR      16  10  78 CALM      29.99R
COPPER MTN     CLOUDY     9  -2  61 S8        29.84R WCI  -4
BERTHOUD PASS  FAIR       0  -9  65 W6        29.82S WCI -12
COTTONWOOD PAS SUNNY     18  12  79 CALM      29.92R
GUNNISON       SUNNY      2  -2  83 CALM      30.01R
KREMMLING      MOSUNNY   19  12  73 E3        29.97S
LEADVILLE      CLOUDY     6   2  83 CALM      29.89R FOG
MONARCH PASS     N/A      1  -2  85 SW14      29.96R WCI -17
SALIDA         FAIR      20  11  67 CALM      30.07S
SUNLIGHT       LGT SNOW   5   1  85 S7        29.88R WCI  -7
WILKERSON PASS SUNNY      5   1  85 SW9G17    29.89R WCI  -9
$$

COZ069>075-231600-
...SAN LUIS VALLEY/SANGRE DE CRISTO MOUNTAINS...

CITY           SKY/WX    TMP DP  RH WIND       PRES   REMARKS
ALAMOSA        SUNNY     24   8  50 S16       30.00S WCI  11
DEL NORTE      FAIR      14  10  84 CALM      30.01R
LA VETA PASS   SUNNY     14   5  67 S26G40    30.03S WCI  -6
SAGUACHE       SUNNY     10   3  72 NW7       30.02R WCI   0
$$

COZ035-036-038>040-231600-
...NORTHERN COLORADO FRONT RANGE...

CITY           SKY/WX    TMP DP  RH WIND       PRES   REMARKS
DENVER INTL AP FOG       17  14  88 SW7       30.05R VSB 1/2 WCI   8
DMNS CITY PARK NOT AVBL
AURORA         FOG       17  17  99 CALM      30.05R VSB 3/4
FRONT RANGE AP FOG       19  18  93 SW6       30.06R VSB 1/4 WCI  11
ERIE MUNI ARPT FAIR      11   9  91 S3        30.12S FOG
BOULDER MUN AP FAIR      18  12  79 S3        30.04S
CENTENNIAL     CLOUDY    16  16 100 CALM      30.03R FOG
BROOMFIELD     MOSUNNY   12   9  85 CALM      30.04R
LOVELAND       SUNNY     13  10  88 S6        30.07R WCI   4
LONGMONT       FAIR      15  11  84 CALM      30.08S
$$

COZ041-046-047-076>085-087-088-231600-
...PIKES PEAK/PALMER DIVIDE AND SOUTHERN FOOTHILLS...

CITY           SKY/WX    TMP DP  RH WIND       PRES   REMARKS
COLO. SPRINGS  MOSUNNY   22  18  85 CALM      30.03R
A. F. ACADEMY  SUNNY     17  13  84 N5        30.00R WCI  10
SCHRIEVER AFB  NOT AVBL
CHEYENNE MTN   NOT AVBL
ELLICOTT         N/A    N/A N/A N/A S3        30.01
FALCON         FAIR      21  17  84 MISG      30.01R
FORT CARSON    SUNNY     21  16  80 CALM      30.03R
LIMON          SUNNY     15  13  91 CALM      30.06R FOG
MONUMENT HILL  SUNNY     18  12  79 W7        30.00R WCI   8
CANON CITY     SUNNY     21  19  93 N3        30.05R
WALSENBURG     FAIR      36   9  32 SW13G18   30.01S
TRINIDAD       SUNNY     24  10  55 SE6       30.03R WCI  17
$$

COZ042>045-048>051-090-091-231600-
...NORTHEAST COLORADO...

CITY           SKY/WX    TMP DP  RH WIND       PRES   REMARKS
GREELEY ARPT   NOT AVBL
AKRON          SUNNY     21  18  88 CALM      30.09R FOG
BURLINGTON     SUNNY     18  14  84 W3        30.12R
WRAY           FAIR      23  19  86 SW3       30.15R
YUMA           NOT AVBL
STERLING       FAIR      18  16  93 SE6       30.13R FOG     WCI   9
HOLYOKE        FAIR      25  19  80 N9        30.14S WCI  15
FORT MORGAN      N/A     17  15  92 W3        30.09S FOG
$$

COZ086-089-092>099-231600-
...SOUTHEAST COLORADO...

CITY           SKY/WX    TMP DP  RH WIND       PRES   REMARKS
PUEBLO         SUNNY     20  16  84 VRB3      30.08R FOG
LA JUNTA       FOG       20  19  96 CALM      30.12R VSB 1/4
LAMAR          CLOUDY    24  22  91 E5        30.13R FOG     WCI  18
SPRINGFIELD      N/A     21  20  96 NE5       30.09S WCI  15
$$




USA.gov is the U.S. government's official web portal to all federal, state and local government web resources and services.